Weather History for Auburn, IN

Change the Weather History Date:

Thursday, May 1, 2014

  Actual Average (KFWA) Record (KFWA)
Temperature  
Mean Temperature 46 °F 56 °F  
Max Temperature 50 °F 67 °F 88 °F (1942)
Min Temperature 41 °F 44 °F 27 °F (1963)
Degree Days  
Heating Degree Days 20 10  
Month to date heating degree days 10  
Since 1 July heating degree days 5892  
Cooling Degree Days 0 0  
Month to date cooling degree days 0  
Year to date cooling degree days 8  
Moisture  
Dew Point 36 °F    
Average Humidity 69    
Maximum Humidity 87    
Minimum Humidity 54    
Precipitation  
Precipitation 0.00 in 0.11 in 1.18 in (1983)
Month to date precipitation 0.11  
Year to date precipitation 10.64  
Snow  
Snow 0.00 in 0.00 in T in (1997)
Month to date snowfall 0.0  
Since 1 July snowfall 33.5  
Snow Depth -    
Sea Level Pressure  
Sea Level Pressure 29.81 in    
Wind  
Wind Speed 9 mph (SW)    
Max Wind Speed 16 mph    
Max Gust Speed 26 mph    
Visibility 10 miles    
Events      
T = Trace of Precipitation, MM = Missing Value Source: NWS Daily Summary

Daily Weather History Graph

Daily Weather History Graph

Search for Another Location

Airport:

Trip Planner

Search our weather history database for the weather conditions in past years. The results will help you decide how hot, cold, wet, or windy it might be!

Date:

Astronomy

May. 01, 2014 Rise Set
Actual Time 6:37 AM EDT 8:37 PM EDT
Civil Twilight 6:07 AM EDT 9:07 PM EDT
Nautical Twilight 5:30 AM EDT 9:44 PM EDT
Astronomical Twilight 4:51 AM EDT 10:24 PM EDT
Moon 8:24 AM EDT (5/1) 11:10 PM EDT (5/1)
Length of Visible Light 15h 00m
Length of Day
14h 00m
Waxing Crescent, 6% of the Moon is Illuminated
May 1
Waxing Crescent
May 6
First Quarter
May 14
Full
May 21
Last Quarter
May 28
New

Hourly Weather History & Observations

Time (EDT) Temp. Windchill Dew Point Humidity Pressure Visibility Wind Dir Wind Speed Gust Speed Precip Events Conditions
12:15 AM 44.6 °F 40.2 °F 35.6 °F 71% 29.84 in 10.0 mi WSW 8.1 mph - N/A   Clear
12:35 AM 44.6 °F 40.2 °F 35.6 °F 71% 29.85 in 10.0 mi WSW 8.1 mph 17.3 mph N/A   Clear
12:55 AM 44.6 °F 40.2 °F 35.6 °F 71% 29.84 in 10.0 mi WSW 8.1 mph - N/A   Clear
1:15 AM 42.8 °F 40.1 °F 35.6 °F 76% 29.84 in 10.0 mi SW 4.6 mph - N/A   Clear
1:35 AM 42.8 °F 39.3 °F 35.6 °F 76% 29.84 in 10.0 mi SW 5.8 mph - N/A   Clear
2:15 AM 42.8 °F 41.1 °F 35.6 °F 76% 29.83 in 10.0 mi SW 3.5 mph - N/A   Clear
2:35 AM 42.8 °F 39.3 °F 35.6 °F 76% 29.83 in 10.0 mi SW 5.8 mph - N/A   Clear
2:55 AM 42.8 °F 40.1 °F 33.8 °F 70% 29.82 in 10.0 mi SW 4.6 mph - N/A   Clear
3:15 AM 41.0 °F 38.0 °F 33.8 °F 76% 29.81 in 10.0 mi SSW 4.6 mph - N/A   Clear
3:35 AM 41.0 °F 37.1 °F 33.8 °F 76% 29.81 in 10.0 mi SW 5.8 mph - N/A   Clear
3:55 AM 42.8 °F 39.3 °F 35.6 °F 76% 29.81 in 10.0 mi SSW 5.8 mph - N/A   Mostly Cloudy
4:15 AM 42.8 °F 40.1 °F 35.6 °F 76% 29.80 in 10.0 mi SSW 4.6 mph - N/A   Mostly Cloudy
4:35 AM 42.8 °F 40.1 °F 35.6 °F 76% 29.80 in 10.0 mi South 4.6 mph - N/A   Overcast
5:15 AM 42.8 °F 39.3 °F 35.6 °F 76% 29.80 in 10.0 mi SSW 5.8 mph - N/A   Scattered Clouds
5:35 AM 42.8 °F 38.0 °F 35.6 °F 76% 29.80 in 10.0 mi SSW 8.1 mph - N/A   Clear
6:15 AM 41.0 °F 38.0 °F 35.6 °F 81% 29.80 in 10.0 mi SSW 4.6 mph - N/A   Clear
6:35 AM 41.0 °F 37.1 °F 35.6 °F 81% 29.80 in 10.0 mi SSW 5.8 mph - N/A   Clear
6:55 AM 41.0 °F 37.1 °F 35.6 °F 81% 29.80 in 10.0 mi SSW 5.8 mph - N/A   Clear
7:15 AM 41.0 °F 37.1 °F 35.6 °F 81% 29.80 in 10.0 mi SSW 5.8 mph - N/A   Clear
7:35 AM 42.8 °F 38.6 °F 35.6 °F 76% 29.79 in 10.0 mi SSW 6.9 mph - N/A   Clear
7:55 AM 44.6 °F 40.2 °F 35.6 °F 71% 29.80 in 10.0 mi SSW 8.1 mph - N/A   Clear
8:15 AM 46.4 °F 41.9 °F 37.4 °F 71% 29.80 in 10.0 mi SSW 9.2 mph - N/A   Scattered Clouds
8:35 AM 46.4 °F 41.9 °F 37.4 °F 71% 29.80 in 10.0 mi SSW 9.2 mph - N/A   Scattered Clouds
8:55 AM 46.4 °F 40.7 °F 37.4 °F 71% 29.80 in 10.0 mi SW 12.7 mph 18.4 mph N/A   Mostly Cloudy
9:15 AM 46.4 °F 40.7 °F 37.4 °F 71% 29.80 in 10.0 mi SW 12.7 mph 18.4 mph N/A   Overcast
9:55 AM 50.0 °F - 37.4 °F 62% 29.79 in 10.0 mi SW 11.5 mph 20.7 mph N/A   Overcast
10:15 AM 48.2 °F - 35.6 °F 62% 29.79 in 10.0 mi SW 10.4 mph - N/A   Overcast
10:55 AM 50.0 °F - 35.6 °F 58% 29.78 in 10.0 mi SW 10.4 mph 19.6 mph N/A   Overcast
11:15 AM 50.0 °F - 35.6 °F 58% 29.79 in 10.0 mi SSW 15.0 mph 24.2 mph N/A   Overcast
11:35 AM 50.0 °F - 33.8 °F 54% 29.79 in 10.0 mi SW 13.8 mph 26.5 mph N/A   Overcast
12:15 PM 50.0 °F - 33.8 °F 54% 29.79 in 10.0 mi SW 9.2 mph 20.7 mph N/A   Overcast
12:35 PM 50.0 °F - 33.8 °F 54% 29.80 in 10.0 mi SW 16.1 mph 21.9 mph N/A   Overcast
12:55 PM 48.2 °F - 33.8 °F 58% 29.80 in 10.0 mi SW 12.7 mph 24.2 mph N/A   Overcast
1:15 PM 50.0 °F - 35.6 °F 58% 29.79 in 10.0 mi SW 12.7 mph 23.0 mph N/A   Overcast
1:35 PM 50.0 °F - 33.8 °F 54% 29.79 in 10.0 mi SW 16.1 mph 23.0 mph N/A   Overcast
1:55 PM 50.0 °F - 35.6 °F 58% 29.79 in 10.0 mi SW 8.1 mph 21.9 mph N/A   Overcast
2:15 PM 48.2 °F - 33.8 °F 58% 29.80 in 10.0 mi SW 12.7 mph 23.0 mph N/A   Overcast
2:35 PM 50.0 °F - 35.6 °F 58% 29.80 in 10.0 mi SW 13.8 mph 20.7 mph N/A   Overcast
2:55 PM 50.0 °F - 35.6 °F 58% 29.80 in 10.0 mi SW 15.0 mph 25.3 mph N/A   Overcast
3:15 PM 50.0 °F - 35.6 °F 58% 29.80 in 10.0 mi SW 12.7 mph 20.7 mph N/A   Overcast
3:35 PM 50.0 °F - 35.6 °F 58% 29.80 in 10.0 mi SW 11.5 mph 24.2 mph N/A   Overcast
3:55 PM 50.0 °F - 35.6 °F 58% 29.80 in 10.0 mi SW 10.4 mph 19.6 mph N/A   Overcast
4:15 PM 50.0 °F - 35.6 °F 58% 29.80 in 10.0 mi SW 10.4 mph 16.1 mph N/A   Overcast
4:35 PM 50.0 °F - 35.6 °F 58% 29.80 in 10.0 mi WSW 15.0 mph 24.2 mph N/A   Overcast
4:55 PM 48.2 °F - 35.6 °F 62% 29.81 in 10.0 mi SW 11.5 mph 19.6 mph N/A   Overcast
5:15 PM 50.0 °F - 35.6 °F 58% 29.81 in 10.0 mi SSW 9.2 mph 20.7 mph N/A   Overcast
5:55 PM 48.2 °F - 35.6 °F 62% 29.82 in 10.0 mi SW 11.5 mph 17.3 mph N/A   Overcast
6:15 PM 46.4 °F 40.1 °F 37.4 °F 71% 29.82 in 10.0 mi SW 15.0 mph 19.6 mph N/A   Overcast
6:35 PM 46.4 °F 40.4 °F 37.4 °F 71% 29.82 in 10.0 mi SW 13.8 mph 23.0 mph N/A   Overcast
7:15 PM 46.4 °F 40.7 °F 37.4 °F 71% 29.82 in 10.0 mi SW 12.7 mph 17.3 mph N/A   Light Drizzle
7:35 PM 46.4 °F 41.5 °F 39.2 °F 76% 29.82 in 10.0 mi WSW 10.4 mph 17.3 mph N/A   Overcast
7:55 PM 46.4 °F 41.1 °F 37.4 °F 71% 29.83 in 10.0 mi SW 11.5 mph 20.7 mph N/A   Overcast
8:15 PM 46.4 °F 41.1 °F 39.2 °F 76% 29.83 in 7.0 mi WSW 11.5 mph 20.7 mph N/A   Overcast
8:35 PM 46.4 °F 41.1 °F 37.4 °F 71% 29.83 in 10.0 mi SW 11.5 mph 21.9 mph N/A   Overcast
8:55 PM 46.4 °F 41.9 °F 37.4 °F 71% 29.83 in 10.0 mi SW 9.2 mph - N/A   Overcast
9:15 PM 46.4 °F 40.7 °F 39.2 °F 76% 29.83 in 10.0 mi SW 12.7 mph 19.6 mph N/A   Overcast
9:35 PM 46.4 °F 41.1 °F 39.2 °F 76% 29.83 in 10.0 mi SW 11.5 mph 18.4 mph N/A   Overcast
9:55 PM 46.4 °F 41.5 °F 39.2 °F 76% 29.83 in 10.0 mi SW 10.4 mph 18.4 mph N/A   Overcast
10:15 PM 46.4 °F 41.5 °F 39.2 °F 76% 29.83 in 10.0 mi SW 10.4 mph 19.6 mph N/A   Overcast
10:35 PM 46.4 °F 41.5 °F 37.4 °F 71% 29.83 in 10.0 mi SW 10.4 mph 20.7 mph N/A   Overcast
10:55 PM 46.4 °F 40.4 °F 37.4 °F 71% 29.83 in 10.0 mi SW 13.8 mph 18.4 mph N/A   Overcast
11:15 PM 46.4 °F 40.7 °F 39.2 °F 76% 29.83 in 10.0 mi WSW 12.7 mph 17.3 mph N/A   Overcast
11:35 PM 44.6 °F 39.2 °F 39.2 °F 81% 29.83 in 10.0 mi SW 10.4 mph 17.3 mph N/A   Overcast
11:55 PM 44.6 °F 40.2 °F 41.0 °F 87% 29.83 in 5.0 mi SW 8.1 mph 17.3 mph N/A   Drizzle